K4IR Weather Reports


time (UTC)temp
F
wind
direction
speed
knots
gust
knots
rain 1hr
in
rain 24hr
in
rain mn
in
humidity
%
barometer
mb
20260506051214 54 86 0.0 0.0 0.00 0.00 0.00 97 1016.7
20260506050209 54 86 0.0 0.0 0.00 0.00 0.00 97 1016.8
20260506044209 55 86 0.0 0.0 0.00 0.00 0.00 97 1017.0
20260506043204 55 86 0.0 0.0 0.00 0.00 0.00 97 1017.3
20260506042200 55 86 0.0 0.0 0.00 0.00 0.00 97 1017.1
20260506041155 55 86 0.0 0.0 0.00 0.00 0.00 97 1017.3
20260506040155 55 86 0.0 0.0 0.00 0.00 0.00 96 1017.2
20260506035155 55 86 0.0 0.0 0.00 0.00 0.00 96 1017.5
20260506034155 55 86 0.0 0.0 0.00 0.00 0.00 96 1017.5
20260506033154 56 86 0.0 0.0 0.00 0.00 0.00 96 1017.7
20260506032154 56 86 0.0 0.0 0.00 0.00 0.00 96 1017.3
20260506031154 56 86 0.0 0.0 0.00 0.00 0.00 96 1017.6
20260506030149 57 86 0.0 0.0 0.00 0.00 0.00 95 1017.7
20260506025148 57 86 0.0 0.0 0.00 0.00 0.00 95 1017.6
20260506024148 57 86 0.0 0.0 0.00 0.00 0.00 95 1017.6
20260506023147 57 86 0.0 0.0 0.00 0.00 0.00 94 1017.6
20260506022147 57 86 0.0 0.0 0.00 0.00 0.00 94 1017.7
20260506021142 58 86 0.0 0.0 0.00 0.00 0.00 93 1017.5
20260506020143 59 86 0.0 0.0 0.00 0.00 0.00 93 1017.4
20260506015137 59 86 0.0 0.0 0.00 0.00 0.00 92 1017.6
20260506014136 59 86 0.0 0.0 0.00 0.00 0.00 92 1017.4
20260506013131 60 86 0.0 0.0 0.00 0.00 0.00 91 1017.3
20260506012129 60 86 0.0 0.0 0.00 0.00 0.00 90 1017.0
20260506011129 61 86 0.0 0.0 0.00 0.00 0.00 89 1017.3
20260506010125 61 86 0.0 0.0 0.00 0.00 0.00 88 1017.3
20260506005124 62 85 0.0 0.0 0.00 0.00 0.00 87 1017.4
20260506004124 62 85 0.0 0.0 0.00 0.00 0.00 86 1017.5
20260506003122 63 85 0.0 0.0 0.00 0.00 0.00 84 1017.2
20260506002120 64 85 0.0 0.0 0.00 0.00 0.00 82 1017.0
20260506001119 65 85 0.0 0.0 0.00 0.00 0.00 80 1017.4
20260506000119 65 85 0.0 0.9 0.00 0.00 0.00 78 1017.1
20260505235114 66 86 0.0 0.0 0.00 0.00 0.00 76 1017.1
20260505234113 68 85 0.0 0.0 0.00 0.00 0.00 73 1017.0
20260505233108 69 93 0.0 0.9 0.00 0.00 0.00 71 1017.2
20260505232103 69 109 0.0 0.9 0.00 0.00 0.00 70 1017.2
20260505231059 69 109 0.9 0.9 0.00 0.00 0.00 68 1017.4
20260505230058 70 80 0.9 4.3 0.00 0.00 0.00 68 1017.3
20260505225056 70 78 0.0 0.9 0.00 0.00 0.00 67 1017.5
20260505224056 71 306 1.7 1.7 0.00 0.00 0.00 65 1017.3
20260505223055 72 276 1.7 1.7 0.00 0.00 0.00 64 1017.2
20260505222053 73 64 0.9 1.7 0.00 0.00 0.00 63 1017.4
20260505221053 73 44 0.9 2.6 0.00 0.00 0.00 63 1017.4
20260505220048 75 35 1.7 2.6 0.00 0.00 0.00 59 1017.3
20260505215043 74 96 0.9 2.6 0.00 0.00 0.00 62 1017.3
20260505214044 73 7 1.7 5.2 0.00 0.00 0.00 63 1017.3
20260505213043 72 72 0.0 2.6 0.00 0.00 0.00 67 1017.3
20260505212044 72 13 2.6 2.6 0.00 0.00 0.00 66 1017.4
20260505211043 72 154 0.9 1.7 0.00 0.00 0.00 67 1017.6
20260505210037 72 211 2.6 5.2 0.00 0.00 0.00 66 1017.3
20260505205038 72 81 0.0 1.7 0.00 0.00 0.00 66 1017.4
20260505204032 73 309 1.7 2.6 0.00 0.00 0.00 62 1017.3
20260505203032 73 263 0.9 4.3 0.00 0.00 0.00 60 1017.4
20260505202030 74 336 2.6 5.2 0.00 0.00 0.00 58 1017.0
20260505201025 74 89 0.9 2.6 0.00 0.00 0.00 59 1017.2
20260505200019 78 260 2.6 4.3 0.00 0.00 0.00 51 1017.4
20260505195018 77 31 1.7 5.2 0.00 0.00 0.00 55 1017.6
20260505194016 76 157 1.7 2.6 0.00 0.00 0.00 56 1017.8
20260505193010 77 84 0.9 2.6 0.00 0.00 0.00 55 1017.9
20260505192006 76 359 2.6 4.3 0.00 0.00 0.00 55 1017.9
20260505191001 76 71 2.6 7.0 0.00 0.00 0.00 56 1018.1
20260505185958 76 93 0.9 6.1 0.00 0.00 0.00 57 1017.9
20260505184957 76 71 0.9 4.3 0.00 0.00 0.00 56 1017.8
20260505183957 77 117 1.7 2.6 0.00 0.00 0.00 56 1018.0
20260505182956 77 209 2.6 4.3 0.00 0.00 0.00 53 1018.3
20260505181955 77 7 2.6 4.3 0.00 0.00 0.00 53 1018.1
20260505180956 77 111 2.6 6.1 0.00 0.00 0.00 54 1018.4
20260505175955 74 312 1.7 5.2 0.00 0.00 0.00 60 1018.4
20260505174954 75 62 2.6 2.6 0.00 0.00 0.00 59 1018.3
20260505173952 74 127 0.9 2.6 0.00 0.00 0.00 60 1018.5
20260505172952 74 26 2.6 4.3 0.00 0.00 0.00 58 1018.7
20260505171950 76 97 0.9 4.3 0.00 0.00 0.00 58 1018.5
20260505170949 74 108 0.9 4.3 0.00 0.00 0.00 60 1018.4
20260505165948 73 64 0.9 1.7 0.00 0.00 0.00 60 1018.7
20260505164945 76 319 2.6 5.2 0.00 0.00 0.00 55 1018.7
20260505163946 77 33 1.7 2.6 0.00 0.00 0.00 55 1018.9
20260505162943 76 342 1.7 2.6 0.00 0.00 0.00 56 1019.0
20260505161942 76 76 0.9 4.3 0.00 0.00 0.00 56 1018.6
20260505160942 75 38 2.6 6.1 0.00 0.00 0.00 57 1019.1
20260505152934 74 62 0.9 1.7 0.00 0.00 0.00 56 1018.8
20260505151931 73 91 0.9 2.6 0.00 0.00 0.00 62 1019.0
20260505150931 73 69 1.7 2.6 0.00 0.00 0.00 61 1019.0
20260505124903 71 92 0.0 0.9 0.00 0.00 0.00 75 1018.5
20260505123902 70 60 0.0 0.9 0.00 0.00 0.00 80 1018.5
20260505122900 68 60 0.0 0.0 0.00 0.00 0.00 79 1018.5
20260505121900 65 60 0.0 0.0 0.00 0.00 0.00 85 1018.3
20260505120858 61 61 0.0 0.0 0.00 0.00 0.00 96 1018.6
20260505115854 58 60 0.0 0.0 0.00 0.00 0.00 98 1018.3
20260505114849 57 61 0.0 0.0 0.00 0.00 0.00 99 1018.5
20260505113847 53 60 0.0 0.0 0.00 0.00 0.00 99 1018.1
20260505112845 51 60 0.0 0.0 0.00 0.00 0.00 99 1018.0
20260505111845 50 60 0.0 0.0 0.00 0.00 0.00 99 1017.9
20260505110842 50 60 0.0 0.0 0.00 0.00 0.00 98 1017.9
20260505101833 49 60 0.0 0.0 0.00 0.00 0.00 98 1017.3
20260505100830 49 60 0.0 0.0 0.00 0.00 0.00 98 1017.2
20260505095828 49 60 0.0 0.0 0.00 0.00 0.00 98 1017.0
20260505094827 49 60 0.0 0.0 0.00 0.00 0.00 98 1017.2
20260505093825 49 60 0.0 0.0 0.00 0.00 0.00 98 1017.0
20260505092820 49 60 0.0 0.0 0.00 0.00 0.00 98 1017.1
20260505091815 49 60 0.0 0.0 0.00 0.00 0.00 98 1016.6
20260505090811 49 60 0.0 0.0 0.00 0.00 0.00 98 1016.7
20260505085806 50 60 0.0 0.0 0.00 0.00 0.00 98 1016.7
20260505084801 50 60 0.0 0.0 0.00 0.00 0.00 98 1016.7
20260505083756 50 60 0.0 0.0 0.00 0.00 0.00 98 1016.6
20260505082756 50 60 0.0 0.0 0.00 0.00 0.00 98 1016.6
20260505081754 50 60 0.0 0.0 0.00 0.00 0.00 98 1016.6
20260505080754 51 60 0.0 0.0 0.00 0.00 0.00 98 1016.6
20260505075752 51 60 0.0 0.0 0.00 0.00 0.00 97 1016.6
20260505074746 51 60 0.0 0.0 0.00 0.00 0.00 97 1016.5
20260505073741 51 60 0.0 0.0 0.00 0.00 0.00 97 1016.4
20260505072741 51 60 0.0 0.0 0.00 0.00 0.00 97 1016.5
20260505071739 51 60 0.0 0.0 0.00 0.00 0.00 97 1016.8
20260505070734 51 60 0.0 0.0 0.00 0.00 0.00 97 1016.6
20260505065731 52 60 0.0 0.0 0.00 0.00 0.00 97 1016.7
20260505064731 52 60 0.0 0.0 0.00 0.00 0.00 97 1016.6
20260505063726 52 60 0.0 0.0 0.00 0.00 0.00 97 1016.5
20260505062724 52 60 0.0 0.0 0.00 0.00 0.00 96 1016.8
20260505061719 53 60 0.0 0.0 0.00 0.00 0.00 96 1017.0
20260505060714 53 60 0.0 0.0 0.00 0.00 0.00 96 1017.0
20260505055712 53 60 0.0 0.0 0.00 0.00 0.00 96 1017.1